Hourly Data Report for October 20, 2016

All times are specified in Local Standard Time (LST). Add 1 hour to adjust for Daylight Saving Time where and when it is observed.

HALL BEACH A
NUNAVUT

68°46'33.000" N
81°14'33.000" W
9.10 m
2402354
71293
YUX

Download Data

Hourly Data (October 2016)
Hourly Data Report for October 20, 2016
Temp Definition
°C
Dew Point Temp Definition
°C
Rel Hum Definition
%
Wind Dir Definition
10's deg

Wind Spd Definition
km/h
Visibility Definition
km
Stn Press Definition
kPa
Hmdx Definition


Wind Chill Definition


Weather Definition


TIME
00:00 Legend Double Dagger -3.9 -5.0 92 26 37 9.7 100.20   -12 Snow
01:00 Legend Double Dagger -4.3 -5.6 91 28 35 14.5 100.20   -13 LegendNANA
02:00 Legend Double Dagger -5.4 -6.8 90 28 35 16.1 100.20   -14 LegendNANA
03:00 Legend Double Dagger -6.9 -8.1 91 27 34 16.1 100.16   -16 LegendNANA
04:00 Legend Double Dagger -4.8 -6.1 91 27 37 16.1 100.17   -14 LegendNANA
05:00 Legend Double Dagger -4.3 -5.3 93 29 39 16.1 100.16   -13 Snow
06:00 Legend Double Dagger -4.2 -5.3 92 30 43 6.4 100.20   -13 Fog
07:00 Legend Double Dagger -4.8 -6.1 91 30 46 4.8 100.21   -14 Snow
08:00 Legend Double Dagger -6.6 -8.0 90 30 39 16.1 100.25   -16 LegendNANA
09:00 Legend Double Dagger -7.0 -8.4 90 29 39 16.1 100.29   -17 LegendNANA
10:00 Legend Double Dagger -6.7 -8.4 88 30 41 9.7 100.27   -16 Fog
11:00 Legend Double Dagger -7.1 -8.8 88 30 39 14.5 100.30   -17 LegendNANA
12:00 Legend Double Dagger -7.0 -8.8 87 30 45 16.1 100.28   -17 LegendNANA
13:00 Legend Double Dagger -6.8 -8.4 88 30 52 2.4 100.32   -18 Snow
14:00 Legend Double Dagger -7.6 -9.1 89 31 46 3.2 100.43   -18 Snow
15:00 Legend Double Dagger -8.5 -10.3 87 31 46 4.8 100.50   -19 Fog
16:00 Legend Double Dagger -9.2 -11.0 87 31 41 14.5 100.59   -20 LegendNANA
17:00 Legend Double Dagger -9.4 -10.9 89 32 45 6.4 100.65   -20 Fog
18:00 Legend Double Dagger -11.9 -13.8 86 31 39 16.1 100.76   -23 LegendNANA
19:00 Legend Double Dagger -13.2 -15.4 84 31 37 16.1 100.81   -25 LegendNANA
20:00 Legend Double Dagger -13.6 -15.8 84 32 35 16.1 100.87   -25 LegendNANA
21:00 Legend Double Dagger -14.0 -16.2 84 31 35 16.1 100.92   -25 LegendNANA
22:00 Legend Double Dagger -14.2 -16.2 85 31 39 16.1 100.93   -26 LegendNANA
23:00 Legend Double Dagger -14.8 -16.9 84 30 34 16.1 101.01   -26 LegendNANA

Notes on Data Quality.

Legend

  • E = Estimated
  • M = Missing
  • NA = Not Available
  • ‡ = Partner data that is not subject to review by the National Climate Archives
Date modified: